Time,TemperatureF,DewpointF,PressureIn,WindDirection,WindDirectionDegrees,WindSpeedMPH,WindSpeedGustMPH,Humidity,HourlyPrecipIn,Conditions,Clouds,dailyrainin,SoftwareType,DateUTC
2013-03-11 00:02:00,29.1,24.0,29.89,NNE,33,0.0,5.0,81,0.00,,,0.00,VWS V14.01,2013-03-11 05:02:00,
2013-03-11 00:07:00,29.0,23.9,29.89,ENE,58,0.0,5.0,81,0.00,,,0.00,VWS V14.01,2013-03-11 05:07:00,
2013-03-11 00:12:00,29.0,24.2,29.89,NW,314,0.0,7.0,82,0.00,,,0.00,VWS V14.01,2013-03-11 05:12:00,
2013-03-11 00:18:00,29.0,23.9,29.89,NE,49,3.0,7.0,81,0.00,,,0.00,VWS V14.01,2013-03-11 05:18:00,
2013-03-11 00:23:00,28.9,23.8,29.89,NE,36,3.0,7.0,81,0.00,,,0.00,VWS V14.01,2013-03-11 05:23:00,
2013-03-11 00:28:00,28.9,23.8,29.89,ENE,63,0.0,8.0,81,0.00,,,0.00,VWS V14.01,2013-03-11 05:28:00,
2013-03-11 00:33:00,28.8,23.7,29.89,NNW,348,1.0,3.0,81,0.00,,,0.00,VWS V14.01,2013-03-11 05:33:00,
2013-03-11 00:38:00,28.8,23.7,29.89,WNW,291,0.0,8.0,81,0.00,,,0.00,VWS V14.01,2013-03-11 05:38:00,
2013-03-11 00:43:00,28.8,24.0,29.89,NW,306,3.0,8.0,82,0.00,,,0.00,VWS V14.01,2013-03-11 05:43:00,
2013-03-11 00:48:00,28.8,23.7,29.89,ESE,123,0.0,8.0,81,0.00,,,0.00,VWS V14.01,2013-03-11 05:48:00,
2013-03-11 00:53:00,28.8,23.7,29.89,WNW,296,4.0,8.0,81,0.00,,,0.00,VWS V14.01,2013-03-11 05:53:00,
2013-03-11 00:58:00,28.9,23.8,29.89,West,266,0.0,8.0,81,0.00,,,0.00,VWS V14.01,2013-03-11 05:58:00,
2013-03-11 01:03:00,28.8,23.7,29.89,NNE,32,0.0,3.0,81,0.00,,,0.00,VWS V14.01,2013-03-11 06:03:00,
2013-03-11 01:08:00,28.7,23.6,29.89,ENE,69,2.0,6.0,81,0.00,,,0.00,VWS V14.01,2013-03-11 06:08:00,
2013-03-11 01:13:00,28.7,23.6,29.88,NW,325,3.0,6.0,81,0.00,,,0.00,VWS V14.01,2013-03-11 06:13:00,
2013-03-11 01:18:00,28.7,23.6,29.88,NNE,21,3.0,6.0,81,0.00,,,0.00,VWS V14.01,2013-03-11 06:18:00,
2013-03-11 01:23:00,28.7,23.9,29.88,ENE,77,2.0,6.0,82,0.00,,,0.00,VWS V14.01,2013-03-11 06:23:00,
2013-03-11 01:29:00,28.7,23.6,29.88,NNE,23,1.0,6.0,81,0.00,,,0.00,VWS V14.01,2013-03-11 06:29:00,
2013-03-11 01:34:00,28.6,23.5,29.88,West,281,5.0,6.0,81,0.00,,,0.00,VWS V14.01,2013-03-11 06:34:00,
2013-03-11 01:39:00,28.6,23.5,29.88,NNW,333,0.0,7.0,81,0.00,,,0.00,VWS V14.01,2013-03-11 06:39:00,
2013-03-11 01:44:00,28.5,23.4,29.88,NNE,29,0.0,7.0,81,0.00,,,0.00,VWS V14.01,2013-03-11 06:44:00,
2013-03-11 01:49:00,28.5,23.4,29.88,ENE,68,0.0,7.0,81,0.00,,,0.00,VWS V14.01,2013-03-11 06:49:00,
2013-03-11 01:54:00,28.5,23.4,29.88,North,9,0.0,8.0,81,0.00,,,0.00,VWS V14.01,2013-03-11 06:54:00,
2013-03-11 01:59:00,28.5,23.4,29.88,NE,38,0.0,8.0,81,0.00,,,0.00,VWS V14.01,2013-03-11 06:59:00,
2013-03-11 02:04:00,28.5,23.4,29.88,ENE,64,3.0,4.0,81,0.00,,,0.00,VWS V14.01,2013-03-11 07:04:00,
2013-03-11 02:09:00,28.4,23.3,29.88,NNE,19,3.0,8.0,81,0.00,,,0.00,VWS V14.01,2013-03-11 07:09:00,
2013-03-11 02:14:00,28.4,23.3,29.88,NNW,340,0.0,8.0,81,0.00,,,0.00,VWS V14.01,2013-03-11 07:14:00,
2013-03-11 02:20:00,28.4,23.3,29.88,WNW,299,4.0,8.0,81,0.00,,,0.00,VWS V14.01,2013-03-11 07:20:00,
2013-03-11 02:25:00,28.4,23.3,29.88,WNW,295,0.0,8.0,81,0.00,,,0.00,VWS V14.01,2013-03-11 07:25:00,
2013-03-11 02:30:00,28.4,23.3,29.87,NNE,32,0.0,8.0,81,0.00,,,0.00,VWS V14.01,2013-03-11 07:30:00,
2013-03-11 02:35:00,28.3,23.2,29.87,WNW,296,3.0,5.0,81,0.00,,,0.00,VWS V14.01,2013-03-11 07:35:00,
2013-03-11 02:40:00,28.2,23.1,29.87,WNW,292,0.0,7.0,81,0.00,,,0.00,VWS V14.01,2013-03-11 07:40:00,
2013-03-11 02:45:00,28.1,23.0,29.87,NW,310,0.0,8.0,81,0.00,,,0.00,VWS V14.01,2013-03-11 07:45:00,
2013-03-11 02:50:00,28.1,23.0,29.87,East,85,0.0,8.0,81,0.00,,,0.00,VWS V14.01,2013-03-11 07:50:00,
2013-03-11 02:55:00,28.1,23.0,29.87,North,10,0.0,8.0,81,0.00,,,0.00,VWS V14.01,2013-03-11 07:55:00,
2013-03-11 03:00:00,28.1,23.0,29.87,WNW,301,0.0,8.0,81,0.00,,,0.00,VWS V14.01,2013-03-11 08:00:00,
2013-03-11 03:05:00,28.1,22.7,29.87,NNE,12,0.0,4.0,80,0.00,,,0.00,VWS V14.01,2013-03-11 08:05:00,
2013-03-11 03:10:00,28.0,22.9,29.87,WNW,296,1.0,10.0,81,0.00,,,0.00,VWS V14.01,2013-03-11 08:10:00,
2013-03-11 03:15:00,28.0,22.9,29.86,NNW,347,0.0,10.0,81,0.00,,,0.00,VWS V14.01,2013-03-11 08:15:00,
2013-03-11 03:20:00,28.0,22.9,29.86,NE,50,3.0,10.0,81,0.00,,,0.00,VWS V14.01,2013-03-11 08:20:00,
2013-03-11 03:25:00,27.9,22.5,29.86,WNW,297,0.0,10.0,80,0.00,,,0.00,VWS V14.01,2013-03-11 08:25:00,
2013-03-11 03:30:00,27.8,22.7,29.86,WNW,283,3.0,11.0,81,0.00,,,0.00,VWS V14.01,2013-03-11 08:30:00,
2013-03-11 03:35:00,27.8,22.7,29.86,North,8,1.0,5.0,81,0.00,,,0.00,VWS V14.01,2013-03-11 08:35:00,
2013-03-11 03:41:00,27.7,22.6,29.86,WNW,284,3.0,7.0,81,0.00,,,0.00,VWS V14.01,2013-03-11 08:41:00,
2013-03-11 03:46:00,27.7,22.6,29.86,NW,316,3.0,7.0,81,0.00,,,0.00,VWS V14.01,2013-03-11 08:46:00,
2013-03-11 03:52:00,27.6,22.5,29.85,WNW,291,2.0,9.0,81,0.00,,,0.00,VWS V14.01,2013-03-11 08:52:00,
2013-03-11 03:57:00,27.6,22.5,29.85,NW,326,0.0,9.0,81,0.00,,,0.00,VWS V14.01,2013-03-11 08:57:00,
2013-03-11 04:02:00,27.5,22.5,29.85,West,270,4.0,5.0,81,0.00,,,0.00,VWS V14.01,2013-03-11 09:02:00,
2013-03-11 04:07:00,27.5,22.5,29.85,NNE,22,2.0,9.0,81,0.00,,,0.00,VWS V14.01,2013-03-11 09:07:00,
2013-03-11 04:12:00,27.4,22.4,29.85,NNW,332,0.0,9.0,81,0.00,,,0.00,VWS V14.01,2013-03-11 09:12:00,
2013-03-11 04:17:00,27.4,22.6,29.84,North,354,0.0,9.0,82,0.00,,,0.00,VWS V14.01,2013-03-11 09:17:00,
2013-03-11 04:22:00,27.4,22.6,29.84,NW,312,0.0,9.0,82,0.00,,,0.00,VWS V14.01,2013-03-11 09:22:00,
2013-03-11 04:27:00,27.4,22.6,29.84,NNE,13,0.0,9.0,82,0.00,,,0.00,VWS V14.01,2013-03-11 09:27:00,
2013-03-11 04:32:00,27.3,22.2,29.84,WNW,287,0.0,3.0,81,0.00,,,0.00,VWS V14.01,2013-03-11 09:32:00,
2013-03-11 04:37:00,27.3,22.5,29.84,NNW,344,0.0,6.0,82,0.00,,,0.00,VWS V14.01,2013-03-11 09:37:00,
2013-03-11 04:42:00,27.3,22.5,29.83,North,354,1.0,6.0,82,0.00,,,0.00,VWS V14.01,2013-03-11 09:42:00,
2013-03-11 04:48:00,27.3,22.5,29.83,NNW,347,6.0,7.0,82,0.00,,,0.00,VWS V14.01,2013-03-11 09:48:00,
2013-03-11 04:53:00,27.2,22.4,29.83,NNE,21,3.0,8.0,82,0.00,,,0.00,VWS V14.01,2013-03-11 09:53:00,
2013-03-11 04:58:00,27.2,22.4,29.83,NNW,346,0.0,8.0,82,0.00,,,0.00,VWS V14.01,2013-03-11 09:58:00,
2013-03-11 05:03:00,27.2,22.4,29.83,NNW,338,0.0,0.0,82,0.00,,,0.00,VWS V14.01,2013-03-11 10:03:00,
2013-03-11 05:08:00,27.1,22.4,29.83,ENE,62,0.0,7.0,82,0.00,,,0.00,VWS V14.01,2013-03-11 10:08:00,
2013-03-11 05:13:00,27.0,22.2,29.83,NE,35,0.0,7.0,82,0.00,,,0.00,VWS V14.01,2013-03-11 10:13:00,
2013-03-11 05:18:00,26.9,22.1,29.83,NNW,328,2.0,7.0,82,0.00,,,0.00,VWS V14.01,2013-03-11 10:18:00,
2013-03-11 05:23:00,26.9,22.4,29.83,WNW,283,2.0,7.0,83,0.00,,,0.00,VWS V14.01,2013-03-11 10:23:00,
2013-03-11 05:28:00,26.9,22.1,29.83,ENE,73,3.0,8.0,82,0.00,,,0.00,VWS V14.01,2013-03-11 10:28:00,
2013-03-11 05:33:00,26.9,22.1,29.83,North,9,0.0,6.0,82,0.00,,,0.00,VWS V14.01,2013-03-11 10:33:00,
2013-03-11 05:38:00,27.0,22.2,29.82,North,354,0.0,6.0,82,0.00,,,0.00,VWS V14.01,2013-03-11 10:38:00,
2013-03-11 05:43:00,26.9,22.1,29.82,North,4,1.0,6.0,82,0.00,,,0.00,VWS V14.01,2013-03-11 10:43:00,
2013-03-11 05:48:00,26.9,22.1,29.82,WNW,299,0.0,8.0,82,0.00,,,0.00,VWS V14.01,2013-03-11 10:48:00,
2013-03-11 05:53:00,26.9,22.1,29.83,NW,318,0.0,8.0,82,0.00,,,0.00,VWS V14.01,2013-03-11 10:53:00,
2013-03-11 05:58:00,26.9,22.1,29.82,NNW,328,2.0,8.0,82,0.00,,,0.00,VWS V14.01,2013-03-11 10:58:00,
2013-03-11 06:03:00,26.8,22.0,29.82,NW,323,0.0,6.0,82,0.00,,,0.00,VWS V14.01,2013-03-11 11:03:00,
2013-03-11 06:08:00,26.8,22.0,29.82,NNW,328,2.0,7.0,82,0.00,,,0.00,VWS V14.01,2013-03-11 11:08:00,
2013-03-11 06:14:00,26.8,22.0,29.83,NW,310,2.0,7.0,82,0.00,,,0.00,VWS V14.01,2013-03-11 11:14:00,
2013-03-11 06:19:00,26.7,22.0,29.83,NW,309,0.0,7.0,82,0.00,,,0.00,VWS V14.01,2013-03-11 11:19:00,
2013-03-11 06:24:00,26.7,22.0,29.82,NNW,331,0.0,8.0,82,0.00,,,0.00,VWS V14.01,2013-03-11 11:24:00,
2013-03-11 06:29:00,26.7,22.0,29.82,NNW,330,1.0,8.0,82,0.00,,,0.00,VWS V14.01,2013-03-11 11:29:00,
2013-03-11 06:34:00,26.7,22.0,29.82,NNW,334,0.0,5.0,82,0.00,,,0.00,VWS V14.01,2013-03-11 11:34:00,
2013-03-11 06:39:00,26.7,22.0,29.82,NW,308,3.0,5.0,82,0.00,,,0.00,VWS V14.01,2013-03-11 11:39:00,
2013-03-11 06:44:00,26.7,22.2,29.82,North,349,0.0,5.0,83,0.00,,,0.00,VWS V14.01,2013-03-11 11:44:00,
2013-03-11 06:49:00,26.7,22.0,29.82,WSW,256,4.0,5.0,82,0.00,,,0.00,VWS V14.01,2013-03-11 11:49:00,
2013-03-11 06:54:00,26.7,22.2,29.82,WSW,258,0.0,5.0,83,0.00,,,0.00,VWS V14.01,2013-03-11 11:54:00,
2013-03-11 06:59:00,26.5,21.8,29.82,NW,305,4.0,6.0,82,0.00,,,0.00,VWS V14.01,2013-03-11 11:59:00,
2013-03-11 07:04:00,26.5,22.0,29.82,NNW,339,0.0,4.0,83,0.00,,,0.00,VWS V14.01,2013-03-11 12:04:00,
2013-03-11 07:09:00,26.5,21.8,29.82,NW,320,1.0,4.0,82,0.00,,,0.00,VWS V14.01,2013-03-11 12:09:00,
2013-03-11 07:15:00,26.5,21.8,29.82,NW,312,3.0,5.0,82,0.00,,,0.00,VWS V14.01,2013-03-11 12:15:00,
2013-03-11 07:20:00,26.3,21.6,29.82,NNW,339,2.0,5.0,82,0.00,,,0.00,VWS V14.01,2013-03-11 12:20:00,
2013-03-11 07:25:00,26.3,21.9,29.82,NNE,32,1.0,7.0,83,0.00,,,0.00,VWS V14.01,2013-03-11 12:25:00,
2013-03-11 07:30:00,26.3,21.9,29.81,WNW,292,5.0,7.0,83,0.00,,,0.00,VWS V14.01,2013-03-11 12:30:00,
2013-03-11 07:35:00,26.2,21.8,29.82,NNW,347,0.0,4.0,83,0.00,,,0.00,VWS V14.01,2013-03-11 12:35:00,
2013-03-11 07:40:00,26.3,21.9,29.82,NW,310,0.0,5.0,83,0.00,,,0.00,VWS V14.01,2013-03-11 12:40:00,
2013-03-11 07:45:00,26.3,21.6,29.82,SSE,165,0.0,5.0,82,0.00,,,0.00,VWS V14.01,2013-03-11 12:45:00,
2013-03-11 07:50:00,26.3,21.6,29.82,West,277,0.0,5.0,82,0.00,,,0.00,VWS V14.01,2013-03-11 12:50:00,
2013-03-11 07:55:00,26.4,21.7,29.82,WNW,303,3.0,5.0,82,0.00,,,0.00,VWS V14.01,2013-03-11 12:55:00,
2013-03-11 08:00:00,26.5,21.8,29.83,NW,326,0.0,7.0,82,0.00,,,0.00,VWS V14.01,2013-03-11 13:00:00,
2013-03-11 08:05:00,26.5,21.8,29.83,NNW,335,0.0,5.0,82,0.00,,,0.00,VWS V14.01,2013-03-11 13:05:00,
2013-03-11 08:10:00,26.5,21.8,29.83,WNW,285,3.0,6.0,82,0.00,,,0.00,VWS V14.01,2013-03-11 13:10:00,
2013-03-11 08:15:00,26.5,21.8,29.83,NW,306,0.0,6.0,82,0.00,,,0.00,VWS V14.01,2013-03-11 13:15:00,
2013-03-11 08:20:00,26.6,21.9,29.83,WNW,283,3.0,6.0,82,0.00,,,0.00,VWS V14.01,2013-03-11 13:20:00,
2013-03-11 08:25:00,26.5,21.8,29.83,WNW,295,0.0,6.0,82,0.00,,,0.00,VWS V14.01,2013-03-11 13:25:00,
2013-03-11 08:30:00,26.5,21.5,29.83,WNW,293,0.0,7.0,81,0.00,,,0.00,VWS V14.01,2013-03-11 13:30:00,
2013-03-11 08:35:00,26.5,21.8,29.83,North,359,0.0,4.0,82,0.00,,,0.00,VWS V14.01,2013-03-11 13:35:00,
2013-03-11 08:41:00,26.5,21.8,29.83,WNW,296,3.0,6.0,82,0.00,,,0.00,VWS V14.01,2013-03-11 13:41:00,
2013-03-11 08:46:00,26.5,21.5,29.83,NW,322,3.0,8.0,81,0.00,,,0.00,VWS V14.01,2013-03-11 13:46:00,
2013-03-11 08:51:00,26.5,21.8,29.83,NW,322,0.0,8.0,82,0.00,,,0.00,VWS V14.01,2013-03-11 13:51:00,
2013-03-11 08:56:00,26.6,21.9,29.83,NW,317,0.0,8.0,82,0.00,,,0.00,VWS V14.01,2013-03-11 13:56:00,
2013-03-11 09:01:00,26.7,21.7,29.83,WNW,292,0.0,6.0,81,0.00,,,0.00,VWS V14.01,2013-03-11 14:01:00,
2013-03-11 09:07:00,26.5,21.5,29.83,NW,312,3.0,6.0,81,0.00,,,0.00,VWS V14.01,2013-03-11 14:07:00,
2013-03-11 09:12:00,26.3,21.6,29.83,North,10,4.0,6.0,82,0.00,,,0.00,VWS V14.01,2013-03-11 14:12:00,
2013-03-11 09:17:00,26.2,21.2,29.83,NW,318,4.0,6.0,81,0.00,,,0.00,VWS V14.01,2013-03-11 14:17:00,
2013-03-11 09:22:00,26.2,21.5,29.83,WNW,292,5.0,8.0,82,0.00,,,0.00,VWS V14.01,2013-03-11 14:22:00,
2013-03-11 09:27:00,26.2,21.5,29.83,WNW,298,0.0,8.0,82,0.00,,,0.00,VWS V14.01,2013-03-11 14:27:00,
2013-03-11 09:32:00,26.3,21.6,29.83,NW,313,0.0,5.0,82,0.00,,,0.00,VWS V14.01,2013-03-11 14:32:00,
2013-03-11 09:37:00,26.5,21.5,29.83,NNW,338,2.0,7.0,81,0.00,,,0.00,VWS V14.01,2013-03-11 14:37:00,
2013-03-11 09:42:00,26.5,21.5,29.83,WNW,295,3.0,7.0,81,0.00,,,0.00,VWS V14.01,2013-03-11 14:42:00,
2013-03-11 09:47:00,26.5,21.5,29.83,North,354,3.0,7.0,81,0.00,,,0.00,VWS V14.01,2013-03-11 14:47:00,
2013-03-11 09:52:00,26.4,21.4,29.83,WNW,303,3.0,7.0,81,0.00,,,0.00,VWS V14.01,2013-03-11 14:52:00,
2013-03-11 09:58:00,26.3,21.3,29.83,NW,317,5.0,9.0,81,0.00,,,0.00,VWS V14.01,2013-03-11 14:58:00,
2013-03-11 10:03:00,26.4,21.7,29.83,WNW,285,0.0,8.0,82,0.00,,,0.00,VWS V14.01,2013-03-11 15:03:00,
2013-03-11 10:08:00,26.6,21.6,29.83,North,359,0.0,8.0,81,0.00,,,0.00,VWS V14.01,2013-03-11 15:08:00,
2013-03-11 10:13:00,26.8,22.0,29.83,WNW,297,4.0,8.0,82,0.00,,,0.00,VWS V14.01,2013-03-11 15:13:00,
2013-03-11 10:18:00,26.9,21.9,29.83,WNW,287,0.0,8.0,81,0.00,,,0.00,VWS V14.01,2013-03-11 15:18:00,
2013-03-11 10:23:00,27.2,22.1,29.83,NW,323,0.0,8.0,81,0.00,,,0.00,VWS V14.01,2013-03-11 15:23:00,
2013-03-11 10:28:00,27.4,22.4,29.83,NW,309,3.0,8.0,81,0.00,,,0.00,VWS V14.01,2013-03-11 15:28:00,
2013-03-11 10:33:00,27.5,22.5,29.83,North,359,0.0,4.0,81,0.00,,,0.00,VWS V14.01,2013-03-11 15:33:00,
2013-03-11 10:38:00,27.6,22.2,29.83,WNW,302,4.0,7.0,80,0.00,,,0.00,VWS V14.01,2013-03-11 15:38:00,
2013-03-11 10:43:00,27.7,22.4,29.83,WNW,301,3.0,7.0,80,0.00,,,0.00,VWS V14.01,2013-03-11 15:43:00,
2013-03-11 10:48:00,27.7,22.6,29.83,NW,310,4.0,10.0,81,0.00,,,0.00,VWS V14.01,2013-03-11 15:48:00,
2013-03-11 10:53:00,27.8,22.4,29.83,NW,308,2.0,10.0,80,0.00,,,0.00,VWS V14.01,2013-03-11 15:53:00,
2013-03-11 10:58:00,28.0,22.6,29.83,NNW,330,0.0,10.0,80,0.00,,,0.00,VWS V14.01,2013-03-11 15:58:00,
2013-03-11 11:03:00,28.3,22.9,29.83,WNW,293,1.0,8.0,80,0.00,,,0.00,VWS V14.01,2013-03-11 16:03:00,
2013-03-11 11:08:00,28.4,22.7,29.82,NW,313,2.0,8.0,79,0.00,,,0.00,VWS V14.01,2013-03-11 16:08:00,
2013-03-11 11:13:00,28.3,22.9,29.82,WNW,292,1.0,8.0,80,0.00,,,0.00,VWS V14.01,2013-03-11 16:13:00,
2013-03-11 11:18:00,28.4,23.0,29.82,NW,310,0.0,8.0,80,0.00,,,0.00,VWS V14.01,2013-03-11 16:18:00,
2013-03-11 11:24:00,28.6,23.2,29.83,NNW,337,0.0,8.0,80,0.00,,,0.00,VWS V14.01,2013-03-11 16:24:00,
2013-03-11 11:29:00,28.7,23.3,29.82,NW,308,1.0,8.0,80,0.00,,,0.00,VWS V14.01,2013-03-11 16:29:00,
2013-03-11 11:34:00,28.8,23.1,29.82,NNW,339,3.0,6.0,79,0.00,,,0.00,VWS V14.01,2013-03-11 16:34:00,
2013-03-11 11:39:00,28.8,23.1,29.82,WNW,288,2.0,9.0,79,0.00,,,0.00,VWS V14.01,2013-03-11 16:39:00,
2013-03-11 11:44:00,29.0,23.3,29.82,WNW,293,2.0,9.0,79,0.00,,,0.00,VWS V14.01,2013-03-11 16:44:00,
2013-03-11 11:49:00,29.1,23.4,29.82,North,354,0.0,9.0,79,0.00,,,0.00,VWS V14.01,2013-03-11 16:49:00,
2013-03-11 11:54:00,29.2,23.5,29.82,NW,326,0.0,9.0,79,0.00,,,0.00,VWS V14.01,2013-03-11 16:54:00,
2013-03-11 11:59:00,29.2,23.5,29.82,WNW,289,5.0,10.0,79,0.00,,,0.00,VWS V14.01,2013-03-11 16:59:00,
2013-03-11 12:04:00,29.4,23.4,29.81,WNW,286,0.0,5.0,78,0.00,,,0.00,VWS V14.01,2013-03-11 17:04:00,
2013-03-11 12:09:00,29.4,23.4,29.82,NNE,23,5.0,8.0,78,0.00,,,0.00,VWS V14.01,2013-03-11 17:09:00,
2013-03-11 12:14:00,29.1,23.4,29.81,NW,306,4.0,10.0,79,0.00,,,0.00,VWS V14.01,2013-03-11 17:14:00,
2013-03-11 12:19:00,29.0,23.0,29.81,WNW,287,8.0,10.0,78,0.00,,,0.00,VWS V14.01,2013-03-11 17:19:00,
2013-03-11 12:24:00,29.1,23.4,29.81,WNW,292,5.0,10.0,79,0.00,,,0.00,VWS V14.01,2013-03-11 17:24:00,
2013-03-11 12:29:00,29.3,23.6,29.81,NNW,348,0.0,10.0,79,0.00,,,0.00,VWS V14.01,2013-03-11 17:29:00,
2013-03-11 12:34:00,29.4,23.4,29.81,WNW,301,5.0,8.0,78,0.00,,,0.00,VWS V14.01,2013-03-11 17:34:00,
2013-03-11 12:39:00,29.5,23.5,29.81,North,350,0.0,12.0,78,0.00,,,0.00,VWS V14.01,2013-03-11 17:39:00,
2013-03-11 12:45:00,29.6,23.6,29.81,North,354,3.0,12.0,78,0.00,,,0.00,VWS V14.01,2013-03-11 17:45:00,
2013-03-11 12:50:00,29.7,23.7,29.81,WNW,291,5.0,12.0,78,0.00,,,0.00,VWS V14.01,2013-03-11 17:50:00,
2013-03-11 12:55:00,29.9,23.9,29.81,NW,308,4.0,12.0,78,0.00,,,0.00,VWS V14.01,2013-03-11 17:55:00,
2013-03-11 13:00:00,29.6,23.6,29.81,WNW,295,1.0,12.0,78,0.00,,,0.00,VWS V14.01,2013-03-11 18:00:00,
2013-03-11 13:05:00,29.5,23.5,29.80,SSW,213,0.0,4.0,78,0.00,,,0.00,VWS V14.01,2013-03-11 18:05:00,
2013-03-11 13:10:00,29.7,23.4,29.80,NNE,26,4.0,9.0,77,0.00,,,0.00,VWS V14.01,2013-03-11 18:10:00,
2013-03-11 13:15:00,29.9,23.9,29.80,WNW,303,2.0,9.0,78,0.00,,,0.00,VWS V14.01,2013-03-11 18:15:00,
2013-03-11 13:20:00,30.1,23.5,29.80,ESE,109,0.0,9.0,76,0.00,,,0.00,VWS V14.01,2013-03-11 18:20:00,
2013-03-11 13:25:00,30.1,24.1,29.80,NW,310,0.0,9.0,78,0.00,,,0.00,VWS V14.01,2013-03-11 18:25:00,
2013-03-11 13:30:00,29.9,23.6,29.80,NNW,348,0.0,9.0,77,0.00,,,0.00,VWS V14.01,2013-03-11 18:30:00,
2013-03-11 13:35:00,29.7,23.4,29.80,NW,316,0.0,4.0,77,0.00,,,0.00,VWS V14.01,2013-03-11 18:35:00,
2013-03-11 13:40:00,29.8,23.5,29.79,NW,305,2.0,7.0,77,0.00,,,0.00,VWS V14.01,2013-03-11 18:40:00,
2013-03-11 13:45:00,29.9,23.6,29.79,NNW,335,0.0,10.0,77,0.00,,,0.00,VWS V14.01,2013-03-11 18:45:00,
2013-03-11 13:50:00,29.8,23.8,29.79,North,354,0.0,10.0,78,0.00,,,0.00,VWS V14.01,2013-03-11 18:50:00,
2013-03-11 13:55:00,29.9,23.9,29.79,WNW,295,3.0,10.0,78,0.00,,,0.00,VWS V14.01,2013-03-11 18:55:00,
2013-03-11 14:00:00,30.0,23.7,29.79,WNW,293,1.0,10.0,77,0.00,,,0.00,VWS V14.01,2013-03-11 19:00:00,
2013-03-11 14:06:00,29.9,23.6,29.79,North,354,0.0,7.0,77,0.00,,,0.00,VWS V14.01,2013-03-11 19:06:00,
2013-03-11 14:11:00,29.9,23.6,29.79,WNW,301,2.0,7.0,77,0.00,,,0.00,VWS V14.01,2013-03-11 19:11:00,
2013-03-11 14:16:00,30.2,23.9,29.78,WNW,284,1.0,7.0,77,0.00,,,0.00,VWS V14.01,2013-03-11 19:16:00,
2013-03-11 14:22:00,30.5,23.9,29.79,WNW,289,0.0,7.0,76,0.00,,,0.00,VWS V14.01,2013-03-11 19:22:00,
2013-03-11 14:27:00,30.6,24.0,29.78,West,281,4.0,7.0,76,0.00,,,0.00,VWS V14.01,2013-03-11 19:27:00,
2013-03-11 14:32:00,30.6,23.6,29.78,WNW,289,0.0,5.0,75,0.00,,,0.00,VWS V14.01,2013-03-11 19:32:00,
2013-03-11 14:37:00,30.5,23.9,29.78,West,281,4.0,8.0,76,0.00,,,0.00,VWS V14.01,2013-03-11 19:37:00,
2013-03-11 14:42:00,30.5,23.9,29.78,West,278,7.0,8.0,76,0.00,,,0.00,VWS V14.01,2013-03-11 19:42:00,
2013-03-11 14:47:00,30.4,23.4,29.78,West,268,5.0,8.0,75,0.00,,,0.00,VWS V14.01,2013-03-11 19:47:00,
2013-03-11 14:52:00,30.3,23.3,29.78,WNW,291,4.0,9.0,75,0.00,,,0.00,VWS V14.01,2013-03-11 19:52:00,
2013-03-11 14:57:00,30.4,23.4,29.78,NW,305,0.0,9.0,75,0.00,,,0.00,VWS V14.01,2013-03-11 19:57:00,
2013-03-11 15:02:00,30.7,23.7,29.78,WNW,292,1.0,4.0,75,0.00,,,0.00,VWS V14.01,2013-03-11 20:02:00,
2013-03-11 15:07:00,31.1,23.1,29.78,NNW,330,3.0,8.0,72,0.00,,,0.00,VWS V14.01,2013-03-11 20:07:00,
2013-03-11 15:13:00,31.2,22.9,29.78,WNW,294,0.0,10.0,71,0.00,,,0.00,VWS V14.01,2013-03-11 20:13:00,
2013-03-11 15:18:00,31.3,23.3,29.78,NW,325,0.0,10.0,72,0.00,,,0.00,VWS V14.01,2013-03-11 20:18:00,
2013-03-11 15:23:00,31.4,23.1,29.78,WNW,299,1.0,10.0,71,0.00,,,0.00,VWS V14.01,2013-03-11 20:23:00,
2013-03-11 15:28:00,31.7,23.4,29.78,WNW,290,6.0,10.0,71,0.00,,,0.00,VWS V14.01,2013-03-11 20:28:00,
2013-03-11 15:33:00,31.9,22.9,29.78,NNW,337,0.0,6.0,69,0.00,,,0.00,VWS V14.01,2013-03-11 20:33:00,
2013-03-11 15:38:00,31.6,22.3,29.79,NNW,327,0.0,6.0,68,0.00,,,0.00,VWS V14.01,2013-03-11 20:38:00,
2013-03-11 15:44:00,31.6,22.6,29.79,WNW,293,5.0,7.0,69,0.00,,,0.00,VWS V14.01,2013-03-11 20:44:00,
2013-03-11 15:49:00,31.5,22.2,29.79,WNW,285,4.0,9.0,68,0.00,,,0.00,VWS V14.01,2013-03-11 20:49:00,
2013-03-11 15:54:00,31.3,22.0,29.79,WNW,285,0.0,9.0,68,0.00,,,0.00,VWS V14.01,2013-03-11 20:54:00,
2013-03-11 15:59:00,31.2,21.9,29.79,WNW,295,0.0,9.0,68,0.00,,,0.00,VWS V14.01,2013-03-11 20:59:00,
2013-03-11 16:04:00,31.3,22.3,29.79,WNW,295,4.0,4.0,69,0.00,,,0.00,VWS V14.01,2013-03-11 21:04:00,
2013-03-11 16:09:00,31.3,22.0,29.79,WNW,295,0.0,5.0,68,0.00,,,0.00,VWS V14.01,2013-03-11 21:09:00,
2013-03-11 16:14:00,31.2,21.9,29.79,WNW,298,0.0,5.0,68,0.00,,,0.00,VWS V14.01,2013-03-11 21:14:00,
2013-03-11 16:19:00,31.0,21.3,29.79,NNW,335,0.0,9.0,67,0.00,,,0.00,VWS V14.01,2013-03-11 21:19:00,
2013-03-11 16:24:00,31.1,22.1,29.79,WNW,297,0.0,9.0,69,0.00,,,0.00,VWS V14.01,2013-03-11 21:24:00,
2013-03-11 16:29:00,31.1,21.4,29.79,WNW,286,0.0,9.0,67,0.00,,,0.00,VWS V14.01,2013-03-11 21:29:00,
2013-03-11 16:34:00,31.1,22.1,29.80,WNW,286,3.0,6.0,69,0.00,,,0.00,VWS V14.01,2013-03-11 21:34:00,
2013-03-11 16:39:00,31.1,21.8,29.80,NNW,330,0.0,6.0,68,0.00,,,0.00,VWS V14.01,2013-03-11 21:39:00,
2013-03-11 16:45:00,31.1,22.1,29.80,WNW,291,0.0,6.0,69,0.00,,,0.00,VWS V14.01,2013-03-11 21:45:00,
2013-03-11 16:50:00,31.0,21.7,29.80,NW,304,0.0,6.0,68,0.00,,,0.00,VWS V14.01,2013-03-11 21:50:00,
2013-03-11 16:55:00,31.1,22.1,29.80,NNW,339,1.0,6.0,69,0.00,,,0.00,VWS V14.01,2013-03-11 21:55:00,
2013-03-11 17:00:00,31.3,22.0,29.80,WNW,303,0.0,6.0,68,0.00,,,0.00,VWS V14.01,2013-03-11 22:00:00,
2013-03-11 17:05:00,31.4,21.7,29.79,WNW,287,6.0,8.0,67,0.00,,,0.00,VWS V14.01,2013-03-11 22:05:00,
2013-03-11 17:10:00,31.3,22.0,29.79,West,280,5.0,8.0,68,0.00,,,0.00,VWS V14.01,2013-03-11 22:10:00,
2013-03-11 17:15:00,31.2,21.5,29.79,WNW,294,5.0,8.0,67,0.00,,,0.00,VWS V14.01,2013-03-11 22:15:00,
2013-03-11 17:20:00,31.2,21.9,29.80,WNW,291,4.0,8.0,68,0.00,,,0.00,VWS V14.01,2013-03-11 22:20:00,
2013-03-11 17:25:00,31.1,21.8,29.80,WNW,285,3.0,8.0,68,0.00,,,0.00,VWS V14.01,2013-03-11 22:25:00,
2013-03-11 17:30:00,31.0,21.7,29.80,West,275,3.0,10.0,68,0.00,,,0.00,VWS V14.01,2013-03-11 22:30:00,
2013-03-11 17:35:00,31.0,21.7,29.80,WNW,282,3.0,7.0,68,0.00,,,0.00,VWS V14.01,2013-03-11 22:35:00,
2013-03-11 17:40:00,30.9,21.6,29.80,WNW,299,1.0,8.0,68,0.00,,,0.00,VWS V14.01,2013-03-11 22:40:00,
2013-03-11 17:45:00,31.0,21.7,29.80,WNW,294,5.0,8.0,68,0.00,,,0.00,VWS V14.01,2013-03-11 22:45:00,
2013-03-11 17:50:00,31.0,22.0,29.80,West,274,0.0,8.0,69,0.00,,,0.00,VWS V14.01,2013-03-11 22:50:00,
2013-03-11 17:55:00,31.0,22.0,29.80,West,280,0.0,8.0,69,0.00,,,0.00,VWS V14.01,2013-03-11 22:55:00,
2013-03-11 18:01:00,30.9,21.9,29.81,WNW,289,4.0,8.0,69,0.00,,,0.00,VWS V14.01,2013-03-11 23:01:00,
2013-03-11 18:06:00,31.0,22.4,29.81,WNW,290,4.0,4.0,70,0.00,,,0.00,VWS V14.01,2013-03-11 23:06:00,
2013-03-11 18:11:00,30.7,21.4,29.81,WNW,297,5.0,8.0,68,0.00,,,0.00,VWS V14.01,2013-03-11 23:11:00,
2013-03-11 18:16:00,30.4,21.5,29.81,WNW,289,0.0,8.0,69,0.00,,,0.00,VWS V14.01,2013-03-11 23:16:00,
2013-03-11 18:21:00,30.2,21.3,29.81,West,280,3.0,8.0,69,0.00,,,0.00,VWS V14.01,2013-03-11 23:21:00,
2013-03-11 18:27:00,30.1,21.5,29.81,West,278,0.0,8.0,70,0.00,,,0.00,VWS V14.01,2013-03-11 23:27:00,
2013-03-11 18:32:00,30.0,21.4,29.81,WSW,257,1.0,4.0,70,0.00,,,0.00,VWS V14.01,2013-03-11 23:32:00,
2013-03-11 18:37:00,29.9,21.0,29.81,West,274,5.0,10.0,69,0.00,,,0.00,VWS V14.01,2013-03-11 23:37:00,
2013-03-11 18:42:00,29.6,20.7,29.82,West,260,2.0,11.0,69,0.00,,,0.00,VWS V14.01,2013-03-11 23:42:00,
2013-03-11 18:47:00,29.4,20.8,29.81,West,278,5.0,11.0,70,0.00,,,0.00,VWS V14.01,2013-03-11 23:47:00,
2013-03-11 18:52:00,29.1,20.9,29.81,West,261,7.0,11.0,71,0.00,,,0.00,VWS V14.01,2013-03-11 23:52:00,
2013-03-11 18:57:00,28.9,21.0,29.82,West,268,3.0,11.0,72,0.00,,,0.00,VWS V14.01,2013-03-11 23:57:00,
2013-03-11 19:02:00,28.7,20.8,29.82,WSW,247,0.0,7.0,72,0.00,,,0.00,VWS V14.01,2013-03-12 00:02:00,
2013-03-11 19:08:00,28.6,20.7,29.82,WSW,245,0.0,7.0,72,0.00,,,0.00,VWS V14.01,2013-03-12 00:08:00,
2013-03-11 19:13:00,28.5,20.6,29.82,NW,312,0.0,8.0,72,0.00,,,0.00,VWS V14.01,2013-03-12 00:13:00,
2013-03-11 19:18:00,28.3,20.8,29.82,West,274,0.0,8.0,73,0.00,,,0.00,VWS V14.01,2013-03-12 00:18:00,
2013-03-11 19:23:00,28.2,20.7,29.82,WSW,252,7.0,9.0,73,0.00,,,0.00,VWS V14.01,2013-03-12 00:23:00,
2013-03-11 19:28:00,28.1,20.6,29.82,WNW,287,2.0,9.0,73,0.00,,,0.00,VWS V14.01,2013-03-12 00:28:00,
2013-03-11 19:33:00,28.0,20.5,29.83,West,274,7.0,7.0,73,0.00,,,0.00,VWS V14.01,2013-03-12 00:33:00,
2013-03-11 19:38:00,27.8,20.3,29.83,West,280,0.0,7.0,73,0.00,,,0.00,VWS V14.01,2013-03-12 00:38:00,
2013-03-11 19:43:00,27.7,20.2,29.83,West,272,0.0,7.0,73,0.00,,,0.00,VWS V14.01,2013-03-12 00:43:00,
2013-03-11 19:48:00,27.5,20.3,29.83,West,264,0.0,7.0,74,0.00,,,0.00,VWS V14.01,2013-03-12 00:48:00,
2013-03-11 19:53:00,27.4,20.2,29.83,West,266,5.0,7.0,74,0.00,,,0.00,VWS V14.01,2013-03-12 00:53:00,
2013-03-11 19:58:00,27.3,20.1,29.83,West,268,1.0,7.0,74,0.00,,,0.00,VWS V14.01,2013-03-12 00:58:00,
2013-03-11 20:03:00,27.1,19.9,29.83,West,260,3.0,9.0,74,0.00,,,0.00,VWS V14.01,2013-03-12 01:03:00,
2013-03-11 20:09:00,26.9,19.7,29.83,West,262,1.0,11.0,74,0.00,,,0.00,VWS V14.01,2013-03-12 01:09:00,
2013-03-11 20:14:00,26.7,19.5,29.84,West,265,5.0,11.0,74,0.00,,,0.00,VWS V14.01,2013-03-12 01:14:00,
2013-03-11 20:19:00,26.5,19.7,29.84,West,270,0.0,11.0,75,0.00,,,0.00,VWS V14.01,2013-03-12 01:19:00,
2013-03-11 20:24:00,26.3,19.5,29.84,West,274,5.0,11.0,75,0.00,,,0.00,VWS V14.01,2013-03-12 01:24:00,
2013-03-11 20:29:00,26.1,19.3,29.84,West,271,7.0,11.0,75,0.00,,,0.00,VWS V14.01,2013-03-12 01:29:00,
2013-03-11 20:34:00,26.0,19.2,29.84,West,270,6.0,7.0,75,0.00,,,0.00,VWS V14.01,2013-03-12 01:34:00,
2013-03-11 20:39:00,25.7,18.9,29.84,West,274,0.0,9.0,75,0.00,,,0.00,VWS V14.01,2013-03-12 01:39:00,
2013-03-11 20:44:00,25.5,18.7,29.84,West,280,2.0,9.0,75,0.00,,,0.00,VWS V14.01,2013-03-12 01:44:00,
2013-03-11 20:49:00,25.4,18.9,29.84,West,276,1.0,9.0,76,0.00,,,0.00,VWS V14.01,2013-03-12 01:49:00,
2013-03-11 20:54:00,25.3,18.8,29.84,West,266,0.0,9.0,76,0.00,,,0.00,VWS V14.01,2013-03-12 01:54:00,
2013-03-11 20:59:00,25.3,18.8,29.85,West,260,2.0,9.0,76,0.00,,,0.00,VWS V14.01,2013-03-12 01:59:00,
2013-03-11 21:04:00,25.2,18.7,29.85,West,266,3.0,8.0,76,0.00,,,0.00,VWS V14.01,2013-03-12 02:04:00,
2013-03-11 21:09:00,25.2,18.7,29.85,West,270,5.0,9.0,76,0.00,,,0.00,VWS V14.01,2013-03-12 02:09:00,
2013-03-11 21:14:00,25.1,18.9,29.85,WNW,289,2.0,9.0,77,0.00,,,0.00,VWS V14.01,2013-03-12 02:14:00,
2013-03-11 21:19:00,25.0,18.8,29.85,West,274,5.0,9.0,77,0.00,,,0.00,VWS V14.01,2013-03-12 02:19:00,
2013-03-11 21:24:00,24.9,18.7,29.86,West,279,3.0,9.0,77,0.00,,,0.00,VWS V14.01,2013-03-12 02:24:00,
2013-03-11 21:29:00,24.7,18.8,29.86,SW,231,5.0,10.0,78,0.00,,,0.00,VWS V14.01,2013-03-12 02:29:00,
2013-03-11 21:34:00,24.6,18.7,29.86,WSW,256,5.0,6.0,78,0.00,,,0.00,VWS V14.01,2013-03-12 02:34:00,
2013-03-11 21:40:00,24.5,18.6,29.86,West,277,0.0,7.0,78,0.00,,,0.00,VWS V14.01,2013-03-12 02:40:00,
2013-03-11 21:45:00,24.5,18.6,29.86,West,261,0.0,9.0,78,0.00,,,0.00,VWS V14.01,2013-03-12 02:45:00,
2013-03-11 21:50:00,24.4,18.5,29.86,West,278,8.0,9.0,78,0.00,,,0.00,VWS V14.01,2013-03-12 02:50:00,
2013-03-11 21:55:00,24.2,18.3,29.86,West,261,6.0,9.0,78,0.00,,,0.00,VWS V14.01,2013-03-12 02:55:00,
2013-03-11 22:00:00,24.1,18.2,29.87,WNW,285,4.0,9.0,78,0.00,,,0.00,VWS V14.01,2013-03-12 03:00:00,
2013-03-11 22:05:00,24.0,18.5,29.87,WNW,292,4.0,6.0,79,0.00,,,0.00,VWS V14.01,2013-03-12 03:05:00,
2013-03-11 22:10:00,23.9,18.4,29.87,WSW,250,2.0,10.0,79,0.00,,,0.00,VWS V14.01,2013-03-12 03:10:00,
2013-03-11 22:15:00,23.8,18.2,29.87,WNW,295,3.0,10.0,79,0.00,,,0.00,VWS V14.01,2013-03-12 03:15:00,
2013-03-11 22:20:00,23.8,18.2,29.87,West,269,3.0,12.0,79,0.00,,,0.00,VWS V14.01,2013-03-12 03:20:00,
2013-03-11 22:25:00,23.8,18.2,29.87,West,273,0.0,12.0,79,0.00,,,0.00,VWS V14.01,2013-03-12 03:25:00,
2013-03-11 22:30:00,23.8,18.2,29.87,WNW,289,6.0,12.0,79,0.00,,,0.00,VWS V14.01,2013-03-12 03:30:00,
2013-03-11 22:35:00,23.8,18.2,29.87,West,261,3.0,7.0,79,0.00,,,0.00,VWS V14.01,2013-03-12 03:35:00,
2013-03-11 22:40:00,23.8,18.2,29.87,WSW,245,4.0,7.0,79,0.00,,,0.00,VWS V14.01,2013-03-12 03:40:00,
2013-03-11 22:45:00,23.9,18.4,29.87,West,260,1.0,7.0,79,0.00,,,0.00,VWS V14.01,2013-03-12 03:45:00,
2013-03-11 22:50:00,23.8,18.0,29.87,West,266,3.0,10.0,78,0.00,,,0.00,VWS V14.01,2013-03-12 03:50:00,
2013-03-11 22:56:00,23.8,18.0,29.87,WSW,256,0.0,10.0,78,0.00,,,0.00,VWS V14.01,2013-03-12 03:56:00,
2013-03-11 23:00:00,23.8,18.0,29.88,WSW,253,0.0,10.0,78,0.00,,,0.00,VWS V14.01,2013-03-12 04:00:00,
2013-03-11 23:01:00,23.8,18.0,29.88,WSW,258,2.0,6.0,78,0.00,,,0.00,VWS V14.01,2013-03-12 04:01:00,
2013-03-11 23:06:00,23.7,17.9,29.88,West,271,0.0,7.0,78,0.00,,,0.00,VWS V14.01,2013-03-12 04:06:00,
2013-03-11 23:11:00,23.7,17.9,29.88,West,271,0.0,7.0,78,0.00,,,0.00,VWS V14.01,2013-03-12 04:11:00,
2013-03-11 23:16:00,23.6,17.8,29.88,WSW,253,2.0,7.0,78,0.00,,,0.00,VWS V14.01,2013-03-12 04:16:00,
2013-03-11 23:22:00,23.4,17.6,29.88,West,273,0.0,8.0,78,0.00,,,0.00,VWS V14.01,2013-03-12 04:22:00,
2013-03-11 23:27:00,23.4,17.6,29.88,WSW,256,8.0,8.0,78,0.00,,,0.00,VWS V14.01,2013-03-12 04:27:00,
2013-03-11 23:32:00,23.2,17.4,29.88,West,269,0.0,4.0,78,0.00,,,0.00,VWS V14.01,2013-03-12 04:32:00,
2013-03-11 23:37:00,23.1,17.0,29.88,WSW,246,2.0,7.0,77,0.00,,,0.00,VWS V14.01,2013-03-12 04:37:00,
2013-03-11 23:42:00,22.9,16.8,29.88,West,261,5.0,7.0,77,0.00,,,0.00,VWS V14.01,2013-03-12 04:42:00,
2013-03-11 23:47:00,22.7,16.6,29.88,West,262,0.0,7.0,77,0.00,,,0.00,VWS V14.01,2013-03-12 04:47:00,
2013-03-11 23:52:00,22.5,16.4,29.88,WSW,243,0.0,7.0,77,0.00,,,0.00,VWS V14.01,2013-03-12 04:52:00,
2013-03-11 23:57:00,22.4,16.3,29.88,WSW,258,0.0,7.0,77,0.00,,,0.00,VWS V14.01,2013-03-12 04:57:00,